Location: West Cummington
(42.4920°N, 72.9680°W)
Time: 01:00:19
(UTC-04:00)

Daily predictions for brighter satellites

Satellite Brightness Start Highest point End
(mag) Time Altitude Azimuth Time Altitude Azimuth Time Altitude Azimuth
ARGOS Delta rocket 4.2 00:01:34 10° NNE 00:06:42 58° E 00:06:42 58° E
Cosmos 1953 Rocket 4.0 00:07:55 57° NE 00:07:55 57° NE 00:11:41 10° NNE
SME Rocket 3.6 00:07:12 70° SSW 00:07:41 76° WSW 00:12:13 10° NNW
Cosmos 1825 Rocket 3.9 00:12:07 62° NNW 00:12:07 62° NNW 00:15:51 10° N
Cosmos 1805 4.3 00:08:32 10° NNW 00:11:23 42° NW 00:11:23 42° NW
USA 267 3.5 00:06:56 10° NE 00:13:26 68° NW 00:19:33 12° WSW
CZ-2C R/B 3.0 00:22:49 82° S 00:23:04 88° WSW 00:28:40 10° NNW
Cosmos 2082 Rocket 3.6 00:24:51 20° WSW 00:27:56 32° NW 00:33:00 10° N
SeaSat 1 2.7 00:29:44 56° W 00:29:44 56° W 00:34:10 10° NW
Cosmos 972 Rocket 3.9 00:29:21 10° NNW 00:34:38 81° ENE 00:34:38 81° ENE
Cosmos 1953 3.6 00:32:03 10° NNW 00:34:56 36° NW 00:34:56 36° NW
CZ-4B R/B 3.9 00:37:24 18° NNE 00:37:24 18° NNE 00:38:37 10° NNE
Cosmos 2360 4.4 00:34:04 10° NNW 00:39:39 58° WSW 00:39:39 58° WSW
Cosmos 1934 Rocket 3.9 00:34:04 10° N 00:40:27 78° W 00:41:19 66° SSW
Geosat 4.0 00:35:33 10° NNE 00:40:12 67° E 00:40:12 67° E
CZ-2C R/B 2.8 00:38:43 10° N 00:44:18 65° WNW 00:44:57 60° WSW
USA 229 DEB 3.8 00:37:41 10° NW 00:44:46 65° WSW 00:45:48 58° SSW
USA 229 3.8 00:37:47 10° NW 00:44:52 66° WSW 00:45:55 59° SSW
USA 234 3.2 00:45:40 44° SE 00:47:58 85° NE 00:54:33 10° NW
Meteor 2-5 Rocket 3.8 00:47:56 68° SE 00:48:23 72° E 00:54:20 10° NNE
NOSS 3-1 (A) 4.4 00:44:06 10° NNW 00:51:34 61° NE 00:56:43 25° ESE
ATLAS CENTAUR R/B 2.7 00:49:06 10° NNW 00:51:45 32° NNE 00:51:45 32° NNE
SL-16 R/B 2.1 00:47:58 10° NNW 00:53:41 80° ENE 00:54:09 73° ESE
Cosmos 1697 Rocket 4.3 00:50:12 10° NW 00:53:56 21° W 00:53:56 21° W
Cosmos 494 Rocket 3.9 00:57:25 82° NW 00:57:25 82° NW 01:02:29 10° NNE
Cosmos-2242 3.8 00:53:11 10° NNW 00:56:30 47° NW 00:56:30 47° NW
H-2A R/B 3.9 00:57:32 10° NNE 01:00:29 31° ENE 01:00:29 31° ENE
Lacrosse 5 rocket 3.2 00:59:57 10° NNW 01:04:12 33° NNE 01:06:52 19° E
Lacrosse 5 2.5 01:18:10 45° E 01:18:10 45° E 01:22:06 10° NE
Cosmos 2221 3.6 01:14:40 10° N 01:18:30 38° ENE 01:18:30 38° ENE
Cosmos 1727 Rocket 3.9 01:17:49 64° SW 01:18:42 75° W 01:24:56 10° N
Cosmos 2098 Rocket 3.8 01:15:40 10° NNW 01:19:03 47° WNW 01:19:03 47° WNW
Cosmos 1842 Rocket 3.9 01:17:27 10° N 01:21:16 62° NNW 01:21:16 62° NNW
Cosmos 1339 Rocket 4.5 01:23:56 60° SW 01:24:54 70° W 01:31:14 10° N
Cosmos 1302 Rocket 4.0 01:20:11 10° NNW 01:25:14 70° W 01:25:14 70° W
In-Cosmos 22 4.2 01:25:11 60° ESE 01:25:30 61° E 01:30:53 10° NNE
COSMOS 2428 4.4 01:20:38 10° N 01:25:38 30° NE 01:30:03 12° ESE
ISS -0.7 01:26:55 10° NW 01:29:08 16° N 01:31:20 10° NE
Cosmos 2251 Rocket 4.0 01:29:18 47° W 01:29:56 49° WNW 01:35:10 10° N
Cosmos 1605 Rocket 4.4 01:25:42 10° NNW 01:31:25 44° W 01:32:00 43° WSW
Landsat 5 4.2 01:34:54 51° WNW 01:34:54 51° WNW 01:38:39 10° NNW
BREEZE-M DEB (TANK) 4.2 01:35:05 19° WNW 01:37:33 47° N 01:49:14 10° ENE
Cosmos 2360 Rocket 2.2 01:34:25 10° NNW 01:40:07 76° ENE 01:41:16 57° SE
Cosmos 1980 Rocket 4.2 01:37:29 10° WNW 01:39:36 14° W 01:39:36 14° W
Cosmos 1000 Rocket 4.4 01:42:53 59° S 01:44:10 82° E 01:50:31 10° N
Meteor 1-24 Rocket 3.9 01:44:07 57° WSW 01:45:02 65° WNW 01:51:03 10° N
Cosmos 1076 Rocket 4.0 01:47:54 53° E 01:47:54 53° E 01:51:52 10° NNE
Cosmos 2322 Rocket 3.0 01:43:44 10° NW 01:48:24 36° W 01:48:24 36° W
Cosmos 1908 4.0 01:46:10 10° N 01:49:36 50° NE 01:49:36 50° NE
Cosmos 2173 Rocket 3.8 01:45:09 10° N 01:51:18 81° W 01:52:26 61° SSW
Okean 3 Rocket 3.6 01:57:49 78° NW 01:57:49 78° NW 02:02:13 10° N
Cosmos 2333 Rocket 4.1 01:54:16 10° N 01:59:05 27° NE 02:03:49 10° ESE
PSLV R/B 3.5 01:56:17 10° NNE 02:00:18 78° NNE 02:00:18 78° NNE
Resurs 1-4 Rocket 4.3 01:59:41 10° NE 02:02:51 16° E 02:05:36 11° ESE
CZ-2D R/B 4.3 02:03:35 10° NE 02:06:50 16° E 02:09:32 12° SE
NOSS 3-1 (C) 4.4 02:04:45 10° NW 02:11:55 42° WSW 02:13:13 40° SW
SL-16 R/B 4.0 02:08:24 10° SE 02:13:46 33° ENE 02:19:09 10° N
Cosmos 1184 Rocket 4.1 02:17:44 38° NNW 02:17:44 38° NNW 02:19:58 10° N
Cosmos 1802 Rocket 4.1 02:12:11 10° NNW 02:18:22 58° W 02:19:43 48° SW
Cosmos 1459 Rocket 4.4 02:12:46 10° NNW 02:18:50 49° W 02:20:07 43° SW
Cosmos 2297 Rocket 4.4 02:17:08 11° SE 02:19:56 16° E 02:23:11 10° ENE
Cosmos 1864 Rocket 4.4 02:15:21 10° N 02:21:39 87° E 02:24:01 41° S
Cosmos 1408 Rocket 3.4 02:26:02 79° SSW 02:26:17 85° W 02:30:40 10° N
Cosmos 2219 Rocket 3.0 02:21:06 10° NNW 02:26:38 49° ENE 02:32:08 10° SE
Meteor 1-21 Rocket 4.3 02:25:16 51° SSW 02:26:50 77° W 02:32:45 10° N
Cosmos 1766 Rocket 3.4 02:29:18 73° WSW 02:29:33 76° W 02:33:57 10° N
Cosmos 1340 Rocket 3.5 02:30:29 41° WNW 02:30:29 41° WNW 02:33:55 10° N
USA 234 4.4 02:32:58 24° WSW 02:32:58 24° WSW 02:36:49 10° WNW
Cosmos 2061 Rocket 4.5 02:26:14 10° NNW 02:32:00 42° W 02:33:15 38° WSW
Meteor 2-2 Rocket 4.3 02:27:41 10° N 02:33:21 72° E 02:35:57 33° SSE
Cosmos 2016 Rocket 4.3 02:28:37 10° NNW 02:34:46 52° W 02:36:28 41° SW
H-2A R/B 4.2 02:33:32 10° NNW 02:36:45 22° WNW 02:37:06 21° WNW
SL-16 R/B 4.2 02:34:07 10° WNW 02:36:00 14° W 02:36:00 14° W
Cosmos 1674 3.5 02:37:48 40° WNW 02:37:48 40° WNW 02:41:12 10° N
Cosmos 2237 Rocket 3.6 02:33:31 10° N 02:38:43 36° ENE 02:43:52 10° ESE
Cosmos 1328 4.0 02:39:22 54° SE 02:39:51 59° E 02:43:47 10° NNE
Cosmos 1626 4.3 02:40:34 16° ESE 02:42:06 20° E 02:44:53 10° NE
ATLAS 2AS CENTAUR R/B 3.2 02:34:58 10° NNW 02:43:03 73° NE 02:50:31 10° SE
Lacrosse 5 rocket 2.3 02:39:11 10° NW 02:42:28 38° W 02:42:28 38° W
IRS-P3 4.0 02:43:45 10° NNE 02:49:07 83° WNW 02:50:55 43° SSW
Cosmos 1515 Rocket 3.7 02:45:29 10° N 02:49:55 71° E 02:51:31 38° SSE
NOSS 3-3 (A) 4.3 02:48:07 34° S 02:50:36 56° ESE 02:57:02 10° NE
NOSS 3-3 (C) 4.3 02:48:12 34° S 02:50:42 55° ESE 02:57:08 10° NE
CBERS-1 3.9 02:45:53 10° NNE 02:51:02 87° ESE 02:52:47 43° S
Cosmos 1743 Rocket 3.5 02:50:22 52° S 02:51:25 85° E 02:55:54 10° N
Cosmos 1300 2.6 02:48:06 10° N 02:51:57 89° WSW 02:52:24 68° S
Cosmos 2221 4.4 02:53:07 10° NW 02:55:22 17° WNW 02:55:22 17° WNW
Cosmos 2227 Rocket 3.1 02:53:35 24° SSE 02:56:24 41° ESE 03:01:40 10° NE
NPP 3.6 02:51:22 10° N 02:56:46 78° WNW 02:58:48 39° SSW
Cosmos 2123 Rocket 4.4 02:56:27 34° SW 02:58:41 48° WNW 03:04:39 10° N
Helios 1A Rocket 4.1 02:55:45 10° N 02:59:22 29° WNW 02:59:57 28° W
Lacrosse 5 3.1 02:57:20 19° W 03:00:20 35° NNW 03:04:59 10° NE
ARIANE 5 R/B 3.2 02:55:55 10° NNE 03:00:52 47° E 03:03:43 23° SSE
ADEOS Rocket 3.7 02:54:41 10° NNE 03:02:00 70° ESE 03:07:21 22° S
Cosmos 1954 Rocket 4.2 03:00:23 34° S 03:02:38 68° ESE 03:07:52 10° NNE
Cosmos 407 Rocket 3.6 03:04:00 39° SW 03:05:49 63° WNW 03:10:58 10° NNE
ISS -1.4 03:03:40 10° NW 03:06:27 24° NNE 03:09:13 10° ENE
Cosmos 1447 Rocket 4.5 03:04:32 33° SSW 03:07:29 73° W 03:13:46 10° N
Meteor 1-27 4.5 03:02:22 10° N 03:08:11 73° E 03:13:10 14° SSE
Meteor 1-11 4.3 03:06:11 28° S 03:09:19 75° E 03:15:03 10° NNE
COSMOS 2428 3.1 03:04:38 10° NW 03:10:05 45° WSW 03:12:00 33° SSW
Cosmos 1726 2.7 03:06:34 10° NNW 03:10:06 40° W 03:10:06 40° W
Cosmos 2228 Rocket 3.3 03:07:32 10° NNW 03:11:52 51° W 03:12:58 41° SW
Cosmos 2219 3.6 03:10:48 30° WSW 03:13:13 49° WNW 03:18:41 10° NNE
Cosmos 2058 2.9 03:14:39 36° S 03:16:15 77° E 03:20:22 10° N
Cosmos 676 Rocket 4.0 03:14:54 34° SSW 03:17:15 74° WNW 03:22:34 10° NNE
Cosmos 2233 Rocket 4.2 03:12:12 10° NNW 03:18:20 55° W 03:21:41 27° SSW
ERS-1 4.5 03:13:34 10° NNE 03:18:41 84° ESE 03:21:30 28° S
Cosmos 2360 Rocket 3.9 03:20:17 10° WNW 03:22:59 15° W 03:22:59 15° W
Cosmos 2082 4.0 03:20:13 23° S 03:23:37 59° ESE 03:29:08 10° NNE
Cosmos 1242 Rocket 4.1 03:21:51 10° NW 03:24:02 20° WNW 03:24:02 20° WNW
Cosmos 1328 Rocket 4.4 03:22:22 10° NNW 03:26:22 33° W 03:27:17 30° WSW
Spot 4 Rocket 4.0 03:22:52 10° NNE 03:28:02 81° WNW 03:30:59 26° SSW
SL-08 R/B 4.2 03:31:18 28° SW 03:32:41 32° W 03:37:08 10° NNW
Cosmos 1455 2.6 03:32:03 10° N 03:35:54 65° E 03:39:30 12° SSE
Cosmos 1703 3.1 03:35:50 30° SSW 03:37:40 78° W 03:41:36 10° N
CZ-2D R/B 4.2 03:35:15 10° NNE 03:39:08 46° E 03:42:27 14° S
Lacrosse 4 Rocket 3.9 03:38:20 10° SE 03:40:33 14° ESE 03:42:48 10° ENE
MOZ.5/SAFIR/RUBIN 5/SL-8 4.1 03:38:10 10° SSE 03:42:53 69° ENE 03:47:38 10° N
Resurs 1-4 Rocket 2.2 03:37:53 10° N 03:43:09 67° WNW 03:46:41 21° SSW
Cosmos 2333 Rocket 2.4 03:38:07 10° NW 03:43:37 50° WSW 03:49:04 10° S
Cosmos 1151 Rocket 3.6 03:40:07 10° NNW 03:44:08 38° W 03:45:58 25° SW
IRS-1D 3.7 03:39:27 10° N 03:44:46 64° WNW 03:48:19 21° SSW
Cosmos 1464 Rocket 3.9 03:38:36 10° N 03:44:47 76° W 03:50:53 10° S
Cosmos 2151 3.5 03:43:27 27° SW 03:45:13 41° WNW 03:49:13 10° N
CZ-2D R/B 2.2 03:42:11 10° N 03:47:20 62° WNW 03:50:51 21° SSW
Cosmos 1707 Rocket 3.9 03:45:58 10° N 03:50:20 66° E 03:54:41 10° SSE
UNKNOWN OBJECT B 2.9 03:49:30 10° NNE 03:53:34 84° ESE 03:56:37 17° S
SL-16 R/B 2.9 03:52:25 15° SSW 03:57:13 42° W 04:03:03 10° NNW
UNK 4.4 03:54:54 20° SSW 03:57:23 35° W 04:01:36 10° NNW
ADEOS 3.9 03:53:12 10° N 03:58:17 53° WNW 04:02:04 18° SW
ADEOS II 3.9 03:54:14 10° NE 03:58:48 29° E 04:03:18 10° SSE
MOS 1 Rocket 3.7 03:54:23 10° NNE 03:59:26 77° ESE 04:04:44 10° S
Cosmos 1980 4.0 03:57:23 10° NW 04:02:47 46° WSW 04:08:10 10° S
Cosmos 2297 Rocket 2.2 03:58:57 18° SSW 04:03:16 73° WNW 04:08:57 10° NNE
SL-8 R/B 4.0 03:59:49 15° WSW 04:03:47 65° NNW 04:08:34 10° ENE
NOSS 7 (D) 4.5 04:02:24 22° SW 04:04:27 65° NW 04:07:46 10° NNE
Cosmos 1666 Rocket 3.7 04:00:54 11° S 04:05:11 79° E 04:09:39 10° N
CZ-3A R/B 3.6 04:04:42 10° NNW 04:07:21 34° NE 04:14:39 10° ESE
ERBS 3.2 04:07:24 17° WSW 04:09:41 39° NW 04:12:55 10° NNE
Cosmos 2219 Rocket 3.3 04:05:44 10° NW 04:10:14 25° WSW 04:13:56 13° SSW
ATLAS 3B CENTAUR R/B 3.8 04:05:21 11° WSW 04:13:56 25° SSW 04:18:19 10° SE
Cosmos 1626 3.4 04:15:14 16° WSW 04:17:18 25° WNW 04:20:27 10° NNW
Cosmos 1356 4.2 04:15:42 17° SW 04:18:01 37° WNW 04:21:19 10° N
Cosmos 1850 Rocket 4.3 04:13:49 14° SW 04:18:07 55° WNW 04:23:14 10° NNE
Aureole 2 Rocket 3.8 04:15:44 10° NW 04:19:10 28° WSW 04:22:43 10° SSW
Okean O Rocket 3.0 04:15:34 10° NNE 04:19:36 36° E 04:23:38 10° SSE
SL-16 R/B 2.2 04:15:01 10° NNW 04:20:44 84° WSW 04:26:24 10° SSE
Cosmos 1741 Rocket 4.3 04:17:20 14° SW 04:21:53 54° WNW 04:27:07 10° NNE
Cosmos 1805 Rocket 4.1 04:18:52 13° SSW 04:22:36 44° WNW 04:26:52 10° N
GPS 2-04 Rocket1 3.7 04:19:42 14° WSW 04:22:41 31° S 04:26:29 10° ESE
Cosmos 2237 Rocket 2.8 04:17:41 10° NW 04:22:42 34° WSW 04:27:41 10° SSW
CZ-4B R/B 4.1 04:22:27 10° NNE 04:26:48 47° E 04:30:57 10° S
CZ-3A R/B 4.3 04:21:54 11° SSW 04:28:03 30° SSE 04:56:32 10° ESE
Cosmos 1570 Rocket 4.5 04:27:08 10° NNW 04:32:09 41° WSW 04:37:07 10° S
NOSS 2-1 (D) 4.5 04:29:44 11° WSW 04:33:08 33° NW 04:37:09 10° NNE
NOSS 2-1 (C) 4.4 04:29:54 11° WSW 04:33:17 34° NW 04:37:19 10° NNE
ATLAS 2AS CENTAUR R/B 3.8 04:27:04 10° NW 04:33:20 27° WSW 04:39:14 10° SSW
NOSS 3-4 (A) 4.1 04:27:19 10° NW 04:34:22 80° NE 04:41:53 10° SE
NOSS 3-4 (C) 4.1 04:27:26 10° NW 04:34:29 79° NE 04:41:59 10° SE
ARIANE 5 R/B 3.9 04:35:44 10° NNW 04:39:39 23° WNW 04:43:31 10° WSW
Cosmos 2227 Rocket 3.3 04:35:33 10° WSW 04:40:32 31° NW 04:45:33 10° N
BREEZE-M DEB (TANK) 3.6 04:35:28 10° W 04:42:22 59° NNW 04:45:22 10° ENE
Cosmos 332 Rocket 4.1 04:37:56 10° NNW 04:42:47 73° ENE 04:47:36 10° SSE
ISS -3.9 04:39:56 10° WNW 04:43:12 70° SW 04:46:27 10° SE
USA 161 2.5 04:42:59 10° SW 04:44:24 16° W 04:45:47 10° NW
Lacrosse 5 4.3 04:41:27 10° NW 04:44:40 16° N 04:47:52 10° NNE
USA 215 4.1 04:40:04 10° ENE 04:46:16 44° SE 04:52:26 10° SSW
ATLAS 5 CENTAUR R/B 4.3 04:43:46 10° SE 04:46:17 14° ESE 04:48:54 10° ENE
Cosmos 1470 Rocket 3.5 04:45:04 10° S 04:49:23 83° W 04:53:44 10° N
